TimeCST,TemperatureF,Dew PointF,Humidity,Sea Level PressureIn,VisibilityMPH,Wind Direction,Wind SpeedMPH,Gust SpeedMPH,PrecipitationIn,Events,Conditions,WindDirDegrees,DateUTC
12:15 AM,55.4,53.6,94,30.06,10.0,NNW,15.0,19.6,N/A,,Unknown,330,2013-01-02 06:15:00
12:35 AM,55.4,53.6,94,30.06,10.0,NNW,11.5,17.3,N/A,,Unknown,330,2013-01-02 06:35:00
12:55 AM,53.6,51.8,94,30.05,10.0,NNW,15.0,18.4,N/A,,Unknown,340,2013-01-02 06:55:00
1:15 AM,53.6,51.8,94,30.06,10.0,NNW,15.0,21.9,N/A,,Unknown,330,2013-01-02 07:15:00
1:35 AM,53.6,51.8,94,30.07,10.0,NNW,11.5,18.4,N/A,,Unknown,340,2013-01-02 07:35:00
1:55 AM,53.6,51.8,94,30.07,10.0,NNW,15.0,20.7,N/A,,Unknown,330,2013-01-02 07:55:00
2:35 AM,53.6,51.8,94,30.06,10.0,NNW,17.3,23.0,N/A,,Unknown,340,2013-01-02 08:35:00
3:15 AM,53.6,50.0,88,30.06,10.0,NNW,16.1,21.9,N/A,,Unknown,340,2013-01-02 09:15:00
3:35 AM,53.6,50.0,88,30.07,10.0,NNW,10.4,-,N/A,,Unknown,330,2013-01-02 09:35:00
4:15 AM,51.8,50.0,94,30.06,10.0,NNW,15.0,18.4,N/A,,Unknown,340,2013-01-02 10:15:00
12:55 PM,51.8,46.4,82,30.12,10.0,NNW,12.7,-,N/A,,Unknown,340,2013-01-02 18:55:00
1:15 PM,51.8,46.4,82,30.11,10.0,NNW,15.0,-,N/A,,Unknown,340,2013-01-02 19:15:00
1:35 PM,50.0,44.6,82,30.11,10.0,NNW,15.0,-,N/A,,Unknown,330,2013-01-02 19:35:00
1:55 PM,50.0,44.6,82,30.10,10.0,NNW,13.8,-,N/A,,Unknown,330,2013-01-02 19:55:00
2:15 PM,51.8,46.4,82,30.12,10.0,NW,10.4,17.3,N/A,,Unknown,320,2013-01-02 20:15:00
2:35 PM,50.0,44.6,82,30.14,10.0,NNW,12.7,-,N/A,,Scattered Clouds,330,2013-01-02 20:35:00
2:55 PM,50.0,44.6,82,30.15,10.0,NW,11.5,-,N/A,Rain,Light Rain,310,2013-01-02 20:55:00
3:15 PM,51.8,46.4,82,30.15,10.0,NNW,9.2,-,N/A,Rain,Light Rain,340,2013-01-02 21:15:00
3:35 PM,51.8,46.4,82,30.15,10.0,NW,10.4,-,N/A,,Clear,320,2013-01-02 21:35:00
3:55 PM,51.8,46.4,82,30.15,10.0,NW,12.7,-,N/A,,Clear,310,2013-01-02 21:55:00
4:15 PM,50.0,44.6,82,30.13,10.0,NNW,9.2,-,N/A,,Unknown,340,2013-01-02 22:15:00
4:35 PM,50.0,44.6,82,30.13,10.0,NNW,12.7,18.4,N/A,,Unknown,340,2013-01-02 22:35:00
5:15 PM,50.0,44.6,82,30.15,10.0,NNW,12.7,-,N/A,Rain,Rain,340,2013-01-02 23:15:00
5:35 PM,50.0,46.4,87,30.14,10.0,North,11.5,-,N/A,,Unknown,350,2013-01-02 23:35:00
5:55 PM,50.0,44.6,82,30.15,10.0,NNW,11.5,-,N/A,,Unknown,330,2013-01-02 23:55:00
6:55 PM,50.0,44.6,82,30.17,10.0,NNW,11.5,-,N/A,,Unknown,330,2013-01-03 00:55:00
7:15 PM,48.2,44.6,87,30.19,10.0,NW,11.5,-,N/A,,Unknown,320,2013-01-03 01:15:00
7:35 PM,48.2,44.6,87,30.19,10.0,NNW,12.7,-,N/A,,Light Drizzle,330,2013-01-03 01:35:00
7:55 PM,48.2,46.4,93,30.18,10.0,NNW,10.4,-,N/A,Rain,Light Rain,340,2013-01-03 01:55:00
8:15 PM,48.2,46.4,93,30.17,10.0,North,12.7,-,N/A,,Unknown,350,2013-01-03 02:15:00
8:35 PM,48.2,46.4,93,30.17,10.0,NNW,10.4,-,N/A,,Clear,330,2013-01-03 02:35:00
8:55 PM,46.4,46.4,100,30.18,10.0,NNW,11.5,-,N/A,Rain,Light Rain,330,2013-01-03 02:55:00
9:15 PM,46.4,46.4,100,30.17,7.0,NNW,11.5,-,N/A,Rain,Light Rain,340,2013-01-03 03:15:00
9:35 PM,46.4,46.4,100,30.19,10.0,NNW,10.4,17.3,N/A,,Light Drizzle,330,2013-01-03 03:35:00
9:55 PM,46.4,46.4,100,30.19,7.0,North,11.5,-,0.02,Rain,Light Rain,350,2013-01-03 03:55:00
10:15 PM,46.4,46.4,100,30.22,5.0,North,8.1,-,0.02,Rain,Light Rain,350,2013-01-03 04:15:00
10:35 PM,46.4,44.6,93,30.23,7.0,NNW,10.4,-,0.04,Rain,Light Rain,330,2013-01-03 04:35:00
10:55 PM,46.4,46.4,100,30.23,10.0,NNW,9.2,-,0.05,,Unknown,330,2013-01-03 04:55:00
11:15 PM,46.4,44.6,93,30.21,7.0,NNW,12.7,19.6,0.02,,Unknown,330,2013-01-03 05:15:00
11:35 PM,46.4,44.6,93,30.21,5.0,NW,12.7,18.4,0.04,,Unknown,320,2013-01-03 05:35:00
11:55 PM,46.4,44.6,93,30.22,5.0,NNW,10.4,-,0.07,,Unknown,330,2013-01-03 05:55:00